Regional Weather Roundup
Issued by NWS

Home | Current Version | Previous Version | Graphics & Text | Print | Product List | Glossary Off
Versions: 1 2 3 4 5 6 7 8 9 10 11 12 13 14 15 16 17 18 19 20 21 22 23 24 25 26 27 28 29 30 31 32 33 34 35 36 37 38 39 40 41 42 43 44 45 46 47 48 49 50

000
ASUS43 KMPX 270801
RWRMN
WEATHER ROUNDUP FOR MINNESOTA
NATIONAL WEATHER SERVICE TWIN CITIES/CHANHASSEN MN
300 AM CDT TUE JUN 27 2017


NOTE: "FAIR" INDICATES FEW OR NO CLOUDS BELOW 12,000 FEET WITH NO
SIGNIFICANT WEATHER AND/OR OBSTRUCTIONS TO VISIBILITY. N/A MEANS
CURRENT SKY AND/OR WEATHER CONDITIONS ARE NOT AVAILABLE.

MNZ060>063-068>070-270900-
   Twin Cities Metro

CITY           SKY/WX    TMP DP  RH WIND       PRES   REMARKS
TWIN CITIES    CLEAR     57  46  66 S5        30.10S
ST PAUL        CLEAR     51  49  92 E3        30.10F
CRYSTAL        CLEAR     51  44  77 CALM      30.08F
BLAINE         CLEAR     54  46  76 CALM      30.09S
LAKEVILLE      CLEAR     54  46  76 CALM      30.10F
EDEN PRAIRIE   CLEAR     55  46  71 CALM      30.09F
SOUTH ST PAUL  CLEAR     55  46  72 CALM      30.10S
LAKE ELMO      FAIR      48  46  93 CALM      30.10F
$$
MNZ001>005-007-008-013>017-022>024-027-028-270900-
   Northwest Minnesota

CITY           SKY/WX    TMP DP  RH WIND       PRES   REMARKS
BEMIDJI        CLEAR     45  41  85 CALM      30.03F
HALLOCK        CLEAR     45  41  87 S7        29.95F
ROSEAU         CLEAR     48  43  81 S5        29.98F
WARROAD        CLEAR     52  45  76 S5        29.98F
CROOKSTON      CLEAR     46  43  87 S7        30.00F
FOSSTON        CLEAR     45  41  87 S6        30.03F
DETROIT LAKES  CLEAR     52  45  76 S6        30.05F
MOORHEAD       CLEAR     55  39  54 S8        30.03F
PARK RAPIDS    CLEAR     50  40  68 S3        30.05F
MAHNOMEN       FAIR      51  42  71 S7        30.02F
$$
MNZ006-009>011-018-025>026-270900-
   North Central Minnesota

CITY           SKY/WX    TMP DP  RH WIND       PRES   REMARKS
BAUDETTE       CLEAR     48  43  82 S3        29.98F
FLAG ISLAND    CLEAR     57  45  62 SW6       29.95F
INTL FALLS     CLEAR     42  40  92 CALM      29.99F
WASKISH        CLEAR     46  45  93 CALM      30.01F
BIG FORK       CLEAR     43  39  87 CALM      30.03F FOG
LONGVILLE      CLEAR     43  43 100 CALM      30.05F
GRAND RAPIDS   CLEAR     45  44  97 S3        30.06F
CRANE LAKE     CLEAR     41  39  93 CALM      30.02F
ORR            CLEAR     46  43  87 CALM      30.00S
COOK           CLEAR     45  43  93 CALM      30.02F
WALKER         FAIR      47  41  81 CALM      30.04F
$$
MNZ012-019>021-037-270900-
   Northeast Minnesota

CITY           SKY/WX    TMP DP  RH WIND       PRES   REMARKS
DULUTH         CLEAR     50  43  77 W8        30.03S
ELY            CLEAR     46  45  93 CALM      30.02S
HIBBING        FOG       40  40 100 CALM      30.03F VSB 1
EVELETH        CLEAR     45  42  90 CALM      30.04S
DULUTH HARBOR  CLEAR     52  48  87 SW9       30.03F
TWO HARBORS    CLEAR     54  48  82 NW5       30.00F
SILVER BAY     CLEAR     46  45  93 CALM      30.00S
GRAND MARAIS     N/A     47  45  93 CALM      29.98F
G MARAIS ARPRT CLEAR     48  43  81 W5        30.00F
$$
MNZ029>031-032-039>041-046>048-054>057-064-270900-
   West Central Minnesota

CITY           SKY/WX    TMP DP  RH WIND       PRES   REMARKS
FERGUS FALLS   CLEAR     52  43  71 S6        30.04F
WHEATON        CLEAR     54  43  66 S8        30.08F
MORRIS         CLEAR     52  43  71 S6        30.07F
ALEXANDRIA     CLEAR     52  42  69 SW8       30.09F
ELBOW LAKE     FAIR      49  43  80 S7        30.07F
WADENA         CLEAR     45  41  87 CALM      30.06F
GLENWOOD       CLEAR     52  45  76 SW5       30.09F
APPLETON       CLEAR     54  45  71 S5        30.08F
BENSON         CLEAR     48  43  81 SW5       30.10F
ORTONVILLE     CLEAR     54  41  62 S5        30.08F
MADISON        CLEAR     52  45  76 S5        30.09F
WILLMAR        FAIR      50  45  81 CALM      30.11F
$$
MNZ033>034-036-042>043-049>051-058-059-270900-
   Central Minnesota

CITY           SKY/WX    TMP DP  RH WIND       PRES   REMARKS
ST CLOUD       CLEAR     44  43  96 CALM      30.08F
SAUK CENTRE    FAIR      46  42  86 CALM      30.09S
PAYNESVILLE    CLEAR     44  44 100 CALM      30.10S
AITKIN         CLEAR     41  39  93 CALM      30.05F
PINE RIVER     CLEAR     43  43 100 CALM      30.09F
BRAINERD       CLEAR     45  42  89 S3        30.08S
STAPLES        CLEAR     46  41  81 CALM      30.07F
LONG PRAIRIE   FAIR      46  45  93 S3        30.08F
LITTLE FALLS   CLEAR     43  41  93 CALM      30.08F
LITCHFIELD     CLEAR     52  46  82 CALM      30.11S
BUFFALO        CLEAR     52  46  79 CALM      30.11S
MAPLE LAKE     CLEAR     48  47  95 CALM      30.10S
HUTCHINSON     CLEAR     47  45  93 CALM      30.12S
$$
MNZ037-044-045-052-053-270900-
   East Central Minnesota

CITY           SKY/WX    TMP DP  RH WIND       PRES   REMARKS
PRINCETON      CLEAR     45  43  93 CALM      30.09S
MORA           CLEAR     46  43  87 CALM      30.09F
CAMBRIDGE      CLEAR     52  43  71 CALM      30.07S
RUSH CITY      MOCLDY    48  45  87 CALM      30.08S
MOOSE LAKE     CLEAR     45  41  87 SW3       30.04S
HINCKLEY       FAIR      45  45 100 W3        30.07S
CLOQUET        CLEAR     50  41  71 W6        30.04S
MCGREGOR       CLEAR     46  43  87 CALM      30.06F
$$
MNZ071>073-080-081-089-090-097-098-270900-
   Southwest Minnesota

CITY           SKY/WX    TMP DP  RH WIND       PRES   REMARKS
MONTEVIDEO     CLEAR     52  41  66 SW5       30.10F
GRANITE FALLS  CLEAR     51  45  81 S3        30.12F
CANBY          CLEAR     50  43  79 CALM      30.11F
MARSHALL       CLEAR     52  43  71 SW9       30.11F
REDWOOD FALLS  CLEAR     53  41  63 SW5       30.11F
OLIVIA         CLEAR     52  43  71 S3        30.11S
PIPESTONE      CLEAR     54  39  58 SE5       30.12F
WINDOM         CLEAR     46  43  87 CALM      30.13F
WORTHINGTON    CLEAR     53  43  68 S6        30.14F
JACKSON        CLEAR     52  43  71 CALM      30.14F
TRACY          CLEAR     54  47  75 SW8       30.12F
SLAYTON        CLEAR     49  42  78 S5        30.14F
$$
MNZ065>067-074>077-082>085-091>093-270900-
   South Central Minnesota

CITY           SKY/WX    TMP DP  RH WIND       PRES   REMARKS
MANKATO        CLEAR     53  45  74 CALM      30.12S
NEW ULM        CLEAR     48  43  81 CALM      30.12S
ST JAMES       CLEAR     50  45  81 CALM      30.13F
FAIRMONT       CLEAR     51  46  83 SW3       30.14S
GLENCOE        CLEAR     51  48  92 CALM      30.10F
FARIBAULT      PTCLDY    48  46  93 CALM      30.12S
OWATONNA       CLEAR     54  45  71 CALM      30.12S
WASECA         CLEAR     50  45  81 CALM      30.14R
ALBERT LEA     CLEAR     50  48  93 CALM      30.13F
$$
MNZ078>079-086>088-094>096-270900-
   Southeast Minnesota

CITY           SKY/WX    TMP DP  RH WIND       PRES   REMARKS
ROCHESTER      CLEAR     49  45  86 SW7       30.13S
RED WING       CLEAR     48  46  93 CALM      30.10S
STANTON        CLEAR     50  46  87 SW5       30.10S
DODGE CENTER   PTCLDY    48  45  87 SW7       30.13R
WINONA         CLEAR     48  46  93 CALM      30.11F
AUSTIN         CLEAR     48  45  87 CALM      30.13S
PRESTON        CLEAR     49  44  80 SW7       30.13S
$$
ABBREVIATIONS USED IN REMARKS
   TC - TEMPERATURES IN CELSIUS
  WCI - WIND CHILL INDEX
   HX - HEAT INDEX
  VSB - VISIBILITY
$$




USA.gov is the U.S. government's official web portal to all federal, state and local government web resources and services.